Tracking 20083 objects as of 12-Dec-2019
HD Live streaming from Space Station
objects crossing your sky now

COSMOS 2251 DEB

Track COSMOS 2251 DEB now!
10-day predictions


NORAD ID: 34978
Int'l Code: 1993-036AFH
Perigee: 618.0 km
Apogee: 678.0 km
Inclination: 74.0 °
Period: 97.5 minutes
Semi major axis: 7018 km
RCS: 0.0179 m2 (small)
Launch date: June 16, 1993
Source: Commonwealth of Independent States (former USSR) (CIS)
Launch site: PLESETSK MISSILE AND SPACE COMPLEX (PKMTR)

Note: This is SATELLITE DEBRIS
aabbcc
Your satellite tracking list
Your tracking list is empty




NASA's NSSDC Master Catalog

Two Line Element Set (TLE):
1 34978U 93036AFH 19346.08266493  .00001497  00000-0  21738-3 0  9998
2 34978  74.0252   5.3684 0042708 330.5522  29.3246 14.76360198566020
Source of the keplerian elements: AFSPC